Phoenix-Mesa Gateway Airport, AZ

10:54 AM MST on July 22, 2017 (GMT -0700)
Phoenix-Mesa Gateway Airport

Weather History for KIWA - October, 2013

Change the Weather History Date:

Wednesday, October 9, 2013

  Actual Average Record
Temperature  
Mean Temperature 72 °F -  
Max Temperature 87 °F 88 °F 98 °F (2008)
Min Temperature 57 °F 61 °F 39 °F (1999)
Cooling Degree Days 7    
Growing Degree Days 22 (Base 50)    
Moisture  
Dew Point 35 °F    
Average Humidity 30    
Maximum Humidity 49    
Minimum Humidity 11    
Precipitation  
Precipitation 0.00 in - - ()
Sea Level Pressure  
Sea Level Pressure 29.74 in    
Wind  
Wind Speed 10 mph (South)    
Max Wind Speed 25 mph    
Max Gust Speed 37 mph    
Visibility 10 miles    
Events      
Averages and records for this station are not official NWS values.
T = Trace of Precipitation, MM = Missing Value Source: NWS Daily Summary

Daily Weather History Graph

Daily Weather History Graph

Search for Another Location

Airport or City:

Trip Planner

Search our weather history database for the weather conditions in past years. The results will help you decide how hot, cold, wet, or windy it might be!

Date:

Astronomy

Oct. 09, 2013 Rise Set
Actual Time 6:26 AM MST 6:00 PM MST
Civil Twilight 6:02 AM MST 6:25 PM MST
Nautical Twilight 5:33 AM MST 6:53 PM MST
Astronomical Twilight 5:04 AM MST 7:22 PM MST
Moon 11:14 AM MST (10/9) 9:50 PM MST (10/9)
Length of Visible Light 12h 23m
Length of Day
11h 33m
Waxing Crescent, 26% of the Moon is Illuminated
Oct 9
Waxing Crescent
Oct 11
First Quarter
Oct 18
Full
Oct 26
Last Quarter
Nov 3
New

Hourly Weather History & Observations

Time (MST) Temp. Dew Point Humidity Pressure Visibility Wind Dir Wind Speed Gust Speed Precip Events Conditions
12:15 AM 66.2 °F 32.0 °F 28% 29.77 in 10.0 mi ESE 10.4 mph - N/A   Clear
12:35 AM 64.4 °F 32.0 °F 30% 29.77 in 10.0 mi ESE 10.4 mph - N/A   Clear
12:55 AM 64.4 °F 32.0 °F 30% 29.77 in 10.0 mi ESE 8.1 mph - N/A   Clear
1:15 AM 64.4 °F 30.2 °F 28% 29.77 in 10.0 mi ESE 9.2 mph - N/A   Clear
1:35 AM 66.2 °F 28.4 °F 24% 29.76 in 10.0 mi ESE 9.2 mph - N/A   Clear
1:55 AM 64.4 °F 28.4 °F 26% 29.76 in 10.0 mi ESE 8.1 mph - N/A   Clear
2:15 AM 64.4 °F 26.6 °F 24% 29.76 in 10.0 mi ESE 8.1 mph - N/A   Clear
2:35 AM 60.8 °F 30.2 °F 31% 29.76 in 10.0 mi SE 5.8 mph - N/A   Clear
2:55 AM 60.8 °F 30.2 °F 31% 29.75 in 10.0 mi SE 10.4 mph - N/A   Clear
3:15 AM 62.6 °F 30.2 °F 30% 29.75 in 10.0 mi SSE 10.4 mph - N/A   Clear
3:35 AM 62.6 °F 30.2 °F 30% 29.74 in 10.0 mi SE 8.1 mph - N/A   Clear
3:55 AM 57.2 °F 32.0 °F 38% 29.74 in 10.0 mi SSE 6.9 mph - N/A   Clear
4:15 AM 57.2 °F 32.0 °F 38% 29.74 in 10.0 mi SSE 8.1 mph - N/A   Clear
4:35 AM 59.0 °F 32.0 °F 36% 29.74 in 10.0 mi SE 9.2 mph - N/A   Clear
4:47 AM 60.8 °F 32.0 °F 34% 29.74 in 20.0 mi SE 8.1 mph - N/A   Scattered Clouds
4:55 AM 60.8 °F 32.0 °F 34% 29.74 in 10.0 mi SSE 10.4 mph - N/A   Clear
5:15 AM 60.8 °F 32.0 °F 34% 29.74 in 10.0 mi SE 6.9 mph - N/A   Clear
5:35 AM 60.8 °F 32.0 °F 34% 29.74 in 10.0 mi SSE 10.4 mph - N/A   Clear
5:47 AM 60.8 °F 32.0 °F 34% 29.74 in 20.0 mi SE 9.2 mph - N/A   Scattered Clouds
6:47 AM 62.6 °F 32.0 °F 32% 29.75 in 35.0 mi SE 8.1 mph - N/A   Partly Cloudy
7:47 AM 68.0 °F 33.8 °F 28% 29.76 in 45.0 mi SE 8.1 mph - N/A   Partly Cloudy
8:47 AM 73.4 °F 37.4 °F 27% 29.77 in 45.0 mi ESE 6.9 mph - N/A   Scattered Clouds
9:50 AM 78.8 °F 33.8 °F 20% 29.78 in 45.0 mi SE 9.2 mph - N/A   Scattered Clouds
10:52 AM 84.2 °F 30.2 °F 14% 29.77 in 35.0 mi South 12.7 mph 20.7 mph N/A   Scattered Clouds
11:47 AM 84.2 °F 30.2 °F 14% 29.75 in 35.0 mi SW 11.5 mph 21.9 mph N/A   Scattered Clouds
12:47 PM 84.2 °F 32.0 °F 15% 29.72 in 10.0 mi SW 11.5 mph 21.9 mph N/A   Scattered Clouds
1:47 PM 87.8 °F 26.6 °F 11% 29.69 in 4.0 mi SSW 23.0 mph 33.4 mph N/A   Scattered Clouds
2:47 PM 87.8 °F 28.4 °F 12% 29.67 in 4.0 mi SW 19.6 mph 31.1 mph N/A   Widespread Dust
3:47 PM 86.0 °F 30.2 °F 13% 29.67 in 4.0 mi SW 17.3 mph 34.5 mph N/A   Mostly Cloudy
4:47 PM 84.2 °F 35.6 °F 18% 29.67 in 4.0 mi West 24.2 mph 34.5 mph N/A   Mostly Cloudy
5:47 PM 80.6 °F 35.6 °F 20% 29.67 in 4.0 mi SW 25.3 mph 35.7 mph N/A   Widespread Dust
6:47 PM 78.8 °F 30.2 °F 17% 29.69 in 4.0 mi WSW 13.8 mph 36.8 mph N/A   Widespread Dust
7:47 PM 73.4 °F 35.6 °F 25% 29.70 in 10.0 mi WSW 8.1 mph - N/A   Widespread Dust
7:55 PM 73.4 °F 35.6 °F 25% 29.71 in 10.0 mi WSW 13.8 mph - N/A   Mostly Cloudy
8:15 PM 71.6 °F 35.6 °F 27% 29.71 in 10.0 mi WSW 11.5 mph - N/A   Scattered Clouds
8:35 PM 71.6 °F 37.4 °F 29% 29.72 in 10.0 mi WSW 10.4 mph - N/A   Scattered Clouds
8:47 PM 73.4 °F 39.2 °F 29% 29.72 in 10.0 mi WSW 9.2 mph - N/A   Widespread Dust
8:55 PM 71.6 °F 39.2 °F 31% 29.73 in 10.0 mi WSW 13.8 mph - N/A   Clear
9:15 PM 71.6 °F 41.0 °F 33% 29.73 in 10.0 mi WSW 15.0 mph - N/A   Clear
9:47 PM 71.6 °F 42.8 °F 35% 29.75 in 20.0 mi WSW 8.1 mph - N/A   Scattered Clouds
9:55 PM 69.8 °F 41.0 °F 35% 29.75 in 10.0 mi SW 9.2 mph - N/A   Scattered Clouds
10:15 PM 69.8 °F 44.6 °F 40% 29.75 in 10.0 mi SSW 15.0 mph - N/A   Scattered Clouds
10:35 PM 69.8 °F 44.6 °F 40% 29.75 in 10.0 mi SW 13.8 mph 18.4 mph N/A   Clear
10:47 PM 69.8 °F 46.4 °F 43% 29.76 in 20.0 mi SSW 13.8 mph 20.7 mph N/A   Scattered Clouds
10:55 PM 68.0 °F 44.6 °F 43% 29.76 in 10.0 mi SW 10.4 mph - N/A   Clear
11:15 PM 68.0 °F 46.4 °F 46% 29.77 in 10.0 mi SW 6.9 mph - N/A   Clear
11:35 PM 66.2 °F 44.6 °F 46% 29.77 in 10.0 mi SW 4.6 mph - N/A   Scattered Clouds
11:47 PM 66.2 °F 46.4 °F 49% 29.77 in 20.0 mi NW 4.6 mph - N/A   Scattered Clouds
11:55 PM 66.2 °F 46.4 °F 49% 29.76 in 10.0 mi SW 5.8 mph - N/A   Clear